Weather History for KMLC - February, 2013

Change the Weather History Date:

Saturday, February 2, 2013

  Actual Average Record
Temperature  
Mean Temperature 44 °F -  
Max Temperature 61 °F 47 °F 73 °F (1962)
Min Temperature 28 °F 28 °F -6 °F (1985)
Degree Days  
Heating Degree Days 20    
Moisture  
Dew Point 27 °F    
Average Humidity 57    
Maximum Humidity 79    
Minimum Humidity 32    
Precipitation  
Precipitation 0.00 in - - ()
Sea Level Pressure  
Sea Level Pressure 30.25 in    
Wind  
Wind Speed 3 mph (North)    
Max Wind Speed 15 mph    
Max Gust Speed 22 mph    
Visibility 10 miles    
Events      
Averages and records for this station are not official NWS values.
T = Trace of Precipitation, MM = Missing Value Source: NWS Daily Summary

Daily Weather History Graph

Daily Weather History Graph

Search for Another Location

Airport or City:

Trip Planner

Search our weather history database for the weather conditions in past years. The results will help you decide how hot, cold, wet, or windy it might be!

Date:

Astronomy

Feb. 02, 2013 Rise Set
Actual Time 7:20 AM CST 5:53 PM CST
Civil Twilight 6:54 AM CST 6:19 PM CST
Nautical Twilight 6:24 AM CST 6:50 PM CST
Astronomical Twilight 5:54 AM CST 7:19 PM CST
Moon No Moon Rise 10:50 AM CST (2/2)
Length of Visible Light 11h 25m
Length of Day
10h 32m
Waning Gibbous, 59% of the Moon is Illuminated
Feb 2
Waning Gibbous
Feb 3
Last Quarter
Feb 10
New
Feb 17
First Quarter
Feb 25
Full

Hourly Weather History & Observations

Time (CST) Temp. Windchill Dew Point Humidity Pressure Visibility Wind Dir Wind Speed Gust Speed Precip Events Conditions
12:53 AM 37.0 °F 33.3 °F 21.9 °F 54% 30.22 in 10.0 mi NNE 4.6 mph - N/A   Scattered Clouds
1:53 AM 30.9 °F - 23.0 °F 72% 30.20 in 10.0 mi Calm Calm - N/A   Partly Cloudy
2:53 AM 34.0 °F 29.8 °F 23.0 °F 64% 30.18 in 10.0 mi East 4.6 mph - N/A   Scattered Clouds
3:53 AM 35.1 °F - 23.0 °F 61% 30.17 in 10.0 mi Calm Calm - N/A   Partly Cloudy
4:53 AM 32.0 °F 28.7 °F 24.1 °F 73% 30.17 in 10.0 mi East 3.5 mph - N/A   Partly Cloudy
5:53 AM 35.1 °F 32.2 °F 23.0 °F 61% 30.18 in 10.0 mi ESE 3.5 mph - N/A   Partly Cloudy
6:53 AM 28.9 °F - 23.0 °F 78% 30.21 in 10.0 mi Calm Calm - N/A   Partly Cloudy
7:53 AM 28.9 °F - 23.0 °F 78% 30.24 in 10.0 mi Calm Calm - N/A   Scattered Clouds
8:53 AM 37.9 °F - 27.0 °F 65% 30.26 in 10.0 mi Calm Calm - N/A   Partly Cloudy
9:53 AM 43.0 °F 40.3 °F 28.0 °F 56% 30.28 in 10.0 mi Variable 4.6 mph - N/A   Partly Cloudy
10:53 AM 50.0 °F - 30.0 °F 46% 30.27 in 10.0 mi NNW 6.9 mph - N/A   Scattered Clouds
11:53 AM 54.0 °F - 30.0 °F 40% 30.27 in 10.0 mi WNW 6.9 mph - N/A   Partly Cloudy
12:53 PM 57.9 °F - 32.0 °F 37% 30.25 in 10.0 mi NNW 10.4 mph - N/A   Partly Cloudy
1:53 PM 60.1 °F - 32.0 °F 35% 30.24 in 10.0 mi North 9.2 mph - N/A   Partly Cloudy
2:53 PM 61.0 °F - 30.9 °F 32% 30.25 in 10.0 mi NW 15.0 mph 21.9 mph N/A   Partly Cloudy
3:53 PM 60.1 °F - 30.9 °F 33% 30.25 in 10.0 mi NNW 10.4 mph - N/A   Partly Cloudy
4:53 PM 59.0 °F - 30.0 °F 33% 30.25 in 10.0 mi NW 5.8 mph - N/A   Partly Cloudy
5:53 PM 54.0 °F - 28.9 °F 38% 30.25 in 10.0 mi Calm Calm - N/A   Clear
6:53 PM 45.0 °F - 28.9 °F 53% 30.28 in 10.0 mi Calm Calm - N/A   Clear
7:53 PM 39.9 °F - 28.9 °F 65% 30.29 in 10.0 mi Calm Calm - N/A   Clear
8:53 PM 37.9 °F - 28.0 °F 68% 30.30 in 10.0 mi Calm Calm - N/A   Partly Cloudy
9:53 PM 35.1 °F - 28.0 °F 76% 30.30 in 10.0 mi Calm Calm - N/A   Clear
10:53 PM 34.0 °F - 28.0 °F 79% 30.30 in 10.0 mi Calm Calm - N/A   Clear
11:53 PM 35.1 °F - 28.9 °F 78% 30.30 in 10.0 mi Calm Calm - N/A   Scattered Clouds